• In Deutschland
  • Länderverzeichnis
  • Für 7 Tage
  • Wassertemperatur
  • Satellitenkarten
  • Wetterkarte
  • Widgets
  • user-avatar
    Anmelden

    Stündliche Wetter Coburg

    Heute, 20 August, Montag

    Zeit Temperatur Niederschläge Wind Luftdruck Luftfeuchtigkeit
    00:00 +21°C° 0 mm 1 m/S 736 mmHg 68%
    01:00 +20°C° 0 mm 1 m/S 736 mmHg 65%
    02:00 +20°C° 0 mm 1 m/S 736 mmHg 67%
    03:00 +19°C° 0 mm 1 m/S 736 mmHg 69%
    04:00 +19°C° 0 mm 1 m/S 736 mmHg 71%
    05:00 +19°C° 0 mm 1 m/S 736 mmHg 70%
    06:00 +20°C° 0 mm 1 m/S 737 mmHg 69%
    07:00 +21°C° 0 mm 1 m/S 737 mmHg 66%
    08:00 +23°C° 0 mm 1 m/S 737 mmHg 63%
    09:00 +24°C° 0 mm 2 m/S 737 mmHg 59%
    10:00 +26°C° 0 mm 2 m/S 737 mmHg 56%
    11:00 +26°C° 0 mm 3 m/S 737 mmHg 57%
    12:00 +26°C° 0 mm 3 m/S 737 mmHg 58%
    13:00 +26°C° 0 mm 3 m/S 737 mmHg 59%
    14:00 +26°C° 0 mm 3 m/S 737 mmHg 60%
    15:00 +26°C° 0 mm 3 m/S 737 mmHg 61%
    16:00 +26°C° 0 mm 3 m/S 737 mmHg 62%
    17:00 +25°C° 0 mm 2 m/S 737 mmHg 67%
    18:00 +24°C° 0 mm 2 m/S 737 mmHg 72%
    19:00 +23°C° 0 mm 1 m/S 737 mmHg 78%
    20:00 +22°C° 0 mm 1 m/S 737 mmHg 81%
    21:00 +21°C° 0 mm 1 m/S 737 mmHg 83%
    22:00 +20°C° 0 mm 1 m/S 738 mmHg 86%
    23:00 +20°C° 0 mm 1 m/S 738 mmHg 87%

    Morgen, 21 August, Dienstag

    Zeit Temperatur Niederschläge Wind Luftdruck Luftfeuchtigkeit
    00:00 +19°C° 0 mm 1 m/S 738 mmHg 88%
    01:00 +19°C° 0 mm 1 m/S 738 mmHg 89%
    02:00 +18°C° 0 mm 1 m/S 738 mmHg 90%
    03:00 +18°C° 0 mm 1 m/S 738 mmHg 91%
    04:00 +18°C° 0 mm 1 m/S 738 mmHg 92%
    05:00 +18°C° 0 mm 1 m/S 738 mmHg 90%
    06:00 +19°C° 0 mm 1 m/S 738 mmHg 88%
    07:00 +19°C° 0 mm 1 m/S 738 mmHg 86%
    08:00 +21°C° 0 mm 1 m/S 739 mmHg 79%
    09:00 +22°C° 0 mm 1 m/S 739 mmHg 73%
    10:00 +24°C° 0 mm 1 m/S 739 mmHg 67%
    11:00 +25°C° 0,1 mm 1 m/S 739 mmHg 64%
    12:00 +25°C° 0,1 mm 1 m/S 738 mmHg 61%
    13:00 +26°C° 0,1 mm 1 m/S 738 mmHg 57%
    14:00 +26°C° 0 mm 1 m/S 738 mmHg 56%
    15:00 +27°C° 0 mm 1 m/S 738 mmHg 55%
    16:00 +27°C° 0 mm 1 m/S 737 mmHg 54%
    17:00 +26°C° 0 mm 1 m/S 737 mmHg 60%
    18:00 +24°C° 0 mm 2 m/S 737 mmHg 67%
    19:00 +23°C° 0 mm 2 m/S 737 mmHg 73%
    20:00 +21°C° 0 mm 2 m/S 737 mmHg 76%
    21:00 +20°C° 0 mm 2 m/S 737 mmHg 79%
    22:00 +19°C° 0 mm 2 m/S 737 mmHg 83%
    23:00 +18°C° 0 mm 2 m/S 737 mmHg 84%

    übermorgen, 22 August, Mittwoch

    Zeit Temperatur Niederschläge Wind Luftdruck Luftfeuchtigkeit
    00:00 +19°C° 0 mm 1 m/S 737 mmHg 86%
    01:00 +18°C° 0 mm 1 m/S 737 mmHg 87%
    02:00 +18°C° 0 mm 1 m/S 737 mmHg 88%
    03:00 +18°C° 0 mm 1 m/S 737 mmHg 90%
    04:00 +16°C° 0 mm 1 m/S 737 mmHg 91%
    05:00 +18°C° 0 mm 1 m/S 737 mmHg 87%
    06:00 +19°C° 0 mm 1 m/S 737 mmHg 84%
    07:00 +20°C° 0 mm 1 m/S 737 mmHg 80%
    08:00 +22°C° 0 mm 1 m/S 737 mmHg 73%
    09:00 +25°C° 0 mm 1 m/S 737 mmHg 65%
    10:00 +27°C° 0 mm 1 m/S 737 mmHg 57%
    11:00 +28°C° 0 mm 1 m/S 737 mmHg 53%
    12:00 +29°C° 0 mm 1 m/S 737 mmHg 49%
    13:00 +30°C° 0 mm 1 m/S 736 mmHg 44%
    14:00 +30°C° 0 mm 1 m/S 736 mmHg 45%
    15:00 +30°C° 0 mm 1 m/S 736 mmHg 46%
    16:00 +30°C° 0 mm 1 m/S 735 mmHg 47%
    17:00 +28°C° 0 mm 1 m/S 735 mmHg 52%
    18:00 +27°C° 0 mm 1 m/S 735 mmHg 58%
    19:00 +25°C° 0 mm 1 m/S 735 mmHg 63%
    20:00 +24°C° 0,1 mm 1 m/S 735 mmHg 66%
    21:00 +23°C° 0,1 mm 1 m/S 735 mmHg 69%
    22:00 +22°C° 0,1 mm 1 m/S 735 mmHg 73%
    23:00 +22°C° 0 mm 1 m/S 735 mmHg 74%

    23 August, Donnerstag

    Zeit Temperatur Niederschläge Wind Luftdruck Luftfeuchtigkeit
    00:00 +21°C° 0 mm 1 m/S 735 mmHg 76%
    01:00 +19°C° 0 mm 0 m/S 735 mmHg 78%
    02:00 +19°C° 0 mm 0 m/S 734 mmHg 79%
    03:00 +19°C° 0 mm 0 m/S 734 mmHg 80%
    04:00 +19°C° 0 mm 0 m/S 734 mmHg 81%
    05:00 +21°C° 0 mm 1 m/S 734 mmHg 80%
    06:00 +22°C° 0 mm 1 m/S 734 mmHg 78%
    07:00 +22°C° 0 mm 1 m/S 734 mmHg 76%
    08:00 +24°C° 0,2 mm 1 m/S 734 mmHg 72%
    09:00 +25°C° 0,2 mm 2 m/S 734 mmHg 67%
    10:00 +27°C° 0,2 mm 2 m/S 734 mmHg 63%
    11:00 +28°C° 0,5 mm 2 m/S 734 mmHg 59%
    12:00 +28°C° 0,5 mm 3 m/S 734 mmHg 56%
    13:00 +29°C° 0,5 mm 3 m/S 733 mmHg 52%
    14:00 +29°C° 0,2 mm 3 m/S 733 mmHg 52%
    15:00 +29°C° 0,2 mm 3 m/S 733 mmHg 51%
    16:00 +29°C° 0,2 mm 3 m/S 732 mmHg 50%
    17:00 +28°C° 0,3 mm 2 m/S 732 mmHg 56%
    18:00 +26°C° 0,3 mm 2 m/S 732 mmHg 63%
    19:00 +24°C° 0,3 mm 1 m/S 732 mmHg 70%
    20:00 +23°C° 0,1 mm 1 m/S 732 mmHg 73%
    21:00 +22°C° 0,1 mm 1 m/S 732 mmHg 77%
    22:00 +21°C° 0,1 mm 1 m/S 732 mmHg 81%
    23:00 +20°C° 0 mm 1 m/S 732 mmHg 84%

    24 August, Freitag

    Zeit Temperatur Niederschläge Wind Luftdruck Luftfeuchtigkeit
    00:00 +20°C° 0 mm 1 m/S 732 mmHg 87%
    01:00 +19°C° 0 mm 1 m/S 732 mmHg 90%
    02:00 +19°C° 0 mm 1 m/S 732 mmHg 92%
    03:00 +18°C° 0 mm 1 m/S 732 mmHg 93%
    04:00 +18°C° 0 mm 1 m/S 732 mmHg 95%
    05:00 +18°C° 0 mm 1 m/S 732 mmHg 93%
    06:00 +18°C° 0 mm 1 m/S 732 mmHg 91%
    07:00 +19°C° 0 mm 1 m/S 733 mmHg 89%
    08:00 +18°C° 0,1 mm 2 m/S 733 mmHg 83%
    09:00 +19°C° 0,1 mm 2 m/S 733 mmHg 76%
    10:00 +20°C° 0,1 mm 3 m/S 733 mmHg 70%
    11:00 +21°C° 0 mm 3 m/S 733 mmHg 62%
    12:00 +22°C° 0 mm 4 m/S 732 mmHg 55%
    13:00 +23°C° 0 mm 4 m/S 732 mmHg 48%
    14:00 +23°C° 0 mm 4 m/S 732 mmHg 48%
    15:00 +23°C° 0 mm 4 m/S 732 mmHg 48%
    16:00 +22°C° 0 mm 4 m/S 732 mmHg 48%
    17:00 +21°C° 0 mm 4 m/S 732 mmHg 53%
    18:00 +19°C° 0 mm 3 m/S 732 mmHg 59%
    19:00 +18°C° 0 mm 3 m/S 732 mmHg 65%
    20:00 +17°C° 0 mm 2 m/S 733 mmHg 68%
    21:00 +16°C° 0 mm 2 m/S 733 mmHg 72%
    22:00 +15°C° 0 mm 1 m/S 734 mmHg 75%
    23:00 +14°C° 0 mm 1 m/S 734 mmHg 76%

    25 August, Samstag

    Zeit Temperatur Niederschläge Wind Luftdruck Luftfeuchtigkeit
    00:00 +14°C° 0 mm 1 m/S 734 mmHg 77%
    01:00 +13°C° 0 mm 1 m/S 734 mmHg 78%
    02:00 +12°C° 0 mm 1 m/S 735 mmHg 79%
    03:00 +11°C° 0 mm 1 m/S 735 mmHg 81%
    04:00 +11°C° 0 mm 1 m/S 735 mmHg 83%
    05:00 +11°C° 0 mm 1 m/S 735 mmHg 80%
    06:00 +12°C° 0 mm 1 m/S 735 mmHg 78%
    07:00 +12°C° 0 mm 1 m/S 736 mmHg 76%
    08:00 +14°C° 0 mm 2 m/S 736 mmHg 67%
    09:00 +15°C° 0 mm 2 m/S 736 mmHg 58%
    10:00 +17°C° 0 mm 2 m/S 736 mmHg 49%
    11:00 +18°C° 0 mm 3 m/S 735 mmHg 45%
    12:00 +18°C° 0 mm 3 m/S 735 mmHg 41%
    13:00 +19°C° 0 mm 3 m/S 735 mmHg 37%
    14:00 +19°C° 0 mm 2 m/S 734 mmHg 37%
    15:00 +19°C° 0 mm 2 m/S 734 mmHg 37%
    16:00 +19°C° 0 mm 2 m/S 733 mmHg 37%
    17:00 +18°C° 0 mm 2 m/S 733 mmHg 41%
    18:00 +18°C° 0 mm 1 m/S 733 mmHg 46%
    19:00 +16°C° 0 mm 1 m/S 733 mmHg 51%
    20:00 +15°C° 0 mm 1 m/S 733 mmHg 53%
    21:00 +14°C° 0 mm 1 m/S 733 mmHg 55%
    22:00 +13°C° 0 mm 1 m/S 733 mmHg 57%
    23:00 +12°C° 0 mm 1 m/S 733 mmHg 59%
    Mehr zeigen